Regional Weather Roundup
Issued by NWS New Orleans/Baton Rouge, LA

Home | Current Version | Previous Version | Text Only | Print | Product List | Glossary On
Versions: 1 2 3 4 5 6 7 8 9 10 11 12 13 14 15 16 17 18 19 20 21 22 23 24 25 26 27 28 29 30 31 32 33 34 35 36 37 38 39 40 41 42 43 44 45 46 47 48 49 50
731
ASUS44 KLIX 292310
RWRLIX
NEW ORLEANS REGIONAL WEATHER ROUNDUP
NATIONAL WEATHER SERVICE NEW ORLEANS LA
600 PM CDT WED OCT 29 2014

NOTE: "FAIR" INDICATES FEW OR NO CLOUDS BELOW 12,000 FEET WITH NO
      SIGNIFICANT WEATHER AND/OR OBSTRUCTIONS TO VISIBILITY.
      SKY/WX - SKY CONDITION AND SIGNIFICANT WEATHER.
      TMP - AIR TEMPERATURE.     DP    - DEWPOINT TEMPERATURE.
      RH  - RELATIVE HUMIDITY.   PRES  - PRESSURE.
      HI  - HEAT INDEX.          WCI   - WIND CHILL INDEX.

*  THESE STATIONS ARE NOT NWS OR FAA STATIONS AND ARE NOT UNDER
   NWS QUALITY CONTROL.

LAZ038-040-048-061>063-065>067-069-300000-
SOUTHEAST LOUISIANA

CITY           SKY/WX    TMP DP  RH WIND       PRES   REMARKS
N.O. AUDUBON     N/A     79  67  66 MISG        N/A
N.O. INTL ARPT MOCLDY    78  66  66 N10       30.01R
N.O. LAKEFRONT CLOUDY    78  67  68 N12       30.02R
N.O. DOWNTOWN*   N/A     81  63  54 N6        30.02R
SLIDELL        CLOUDY    76  70  82 NW3       30.01R
BATON ROUGE    MOCLDY    73  64  73 VRB5      30.05R
BOOTHVILLE     CLEAR     79  67  66 CALM      30.02R
BELLE CHASSE   MOCLDY    80  62  54 NW5       30.00R
BOGALUSA*      CLOUDY    75  67  76 N6        30.05R
NEW ROADS*     CLOUDY    69  63  81 N10       30.07S
GONZALES*        N/A     75  70  84 N9        30.03R
HAMMOND*       NOT AVBL
HOUMA*         PTCLDY    81  63  54 NW5       30.01R
PORT FOURCHON* MOCLDY    79  70  73 S6        30.05S

$$

MSZ070-080>082-300000-
SOUTHERN MISSISSIPPI

CITY           SKY/WX    TMP DP  RH WIND       PRES   REMARKS
MCCOMB         PTCLDY    71  60  68 N6        30.07R
GULFPORT       PTCLDY    78  66  66 NE6       30.00R
BILOXI         PTCLDY    77  66  68 NE3       30.01R
PASCAGOULA     CLOUDY    75  68  78 CALM      30.01R
STENNIS ARPT*  MOCLDY    77  63  61 MISG      30.01R

$$

COASTAL OBSERVATIONS
LAKE AND NEARSHORE STATIONS

STATION/POSITION TIME  TEMP    WIND        PRES    WAVE
                       AIR SEA DIR/SP/G            HT/PER
                 (UTC) (F)     (DEG/KT/KT) (MB)    (FT/S)
PASCAGOULA       2300   76     280/  3/  4 1015.6
WAVELAND YACHT   2300   78      30/  7/ 10 1015.3
GRAND ISLE       2300          210/  6/  9   N/A
SOUTHWEST PASS   2300   85 79              1016.8
NEW CANAL        2300           10/ 10/ 12   N/A
SHELL BEACH      2300   78 72  310/  7/  7 1016.0

OFFSHORE STATIONS

STATION/POSITION TIME  TEMP    WIND        PRES    WAVE
                       AIR SEA DIR/SP/G            HT/PER
                 (UTC) (F)     (DEG/KT/KT) (MB)    (FT/S)
64 S DAUPHIN ISL 2238   76 79  330/  4/  6 1016.8    2/ 6

$$




USA.gov is the U.S. government's official web portal to all federal, state and local government web resources and services.